Luke AFB, AZ

12:26 PM MST on December 04, 2016 (GMT -0700)
Luke Air Force Base

Weather History for KLUF - April, 2013

Change the Weather History Date:

Monday, April 29, 2013

  Actual Average Record
Temperature  
Mean Temperature 82 °F -  
Max Temperature 101 °F 90 °F 105 °F (1992)
Min Temperature 64 °F 53 °F 35 °F (1970)
Cooling Degree Days 18    
Growing Degree Days 32 (Base 50)    
Moisture  
Dew Point 25 °F    
Average Humidity 13    
Maximum Humidity 24    
Minimum Humidity 5    
Precipitation  
Precipitation 0.00 in - - ()
Sea Level Pressure  
Sea Level Pressure 29.66 in    
Wind  
Wind Speed 6 mph (SSW)    
Max Wind Speed 18 mph    
Max Gust Speed 20 mph    
Visibility 10 miles    
Events      
Averages and records for this station are not official NWS values.
T = Trace of Precipitation, MM = Missing Value Source: NWS Daily Summary

Daily Weather History Graph

Daily Weather History Graph

Search for Another Location

Airport or City:

Trip Planner

Search our weather history database for the weather conditions in past years. The results will help you decide how hot, cold, wet, or windy it might be!

Date:

Astronomy

Apr. 29, 2013 Rise Set
Actual Time 5:42 AM MST 7:11 PM MST
Civil Twilight 5:16 AM MST 7:37 PM MST
Nautical Twilight 4:44 AM MST 8:09 PM MST
Astronomical Twilight 4:11 AM MST 8:42 PM MST
Moon 11:35 PM MST (4/29) 9:12 AM MST (4/29)
Length of Visible Light 14h 21m
Length of Day
13h 28m
Waning Gibbous, 79% of the Moon is Illuminated
Apr 29
Waning Gibbous
May 2
Last Quarter
May 9
New
May 17
First Quarter
May 24
Full

Hourly Weather History & Observations

Time (MST) Temp. Dew Point Humidity Pressure Visibility Wind Dir Wind Speed Gust Speed Precip Events Conditions
12:58 AM 70.3 °F 31.5 °F 24% 29.70 in 10.0 mi NNE 4.6 mph - N/A   Clear
1:58 AM 73.2 °F 24.8 °F 16% 29.69 in 8.0 mi ESE 4.6 mph - N/A   Clear
2:58 AM 70.7 °F 24.3 °F 18% 29.69 in 10.0 mi North 6.9 mph - N/A   Clear
3:56 AM 68.0 °F 24.8 °F 20% 29.74 in 10.0 mi North 2.3 mph - N/A   Clear
3:58 AM 68.9 °F 25.3 °F 19% 29.70 in 10.0 mi North 2.3 mph - N/A   Clear
4:58 AM 64.8 °F 26.6 °F 24% 29.70 in 10.0 mi North 8.1 mph - N/A   Clear
5:58 AM 65.7 °F 27.9 °F 24% 29.73 in 10.0 mi North 2.3 mph - N/A   Clear
6:58 AM 67.6 °F 29.3 °F 24% 29.73 in 10.0 mi East 3.5 mph - N/A   Clear
7:58 AM 73.2 °F 33.8 °F 24% 29.75 in 10.0 mi North 3.5 mph - N/A   Clear
8:58 AM 79.0 °F 28.0 °F 15% 29.75 in 10.0 mi ESE 3.5 mph - N/A   Clear
9:58 AM 84.9 °F 25.3 °F 11% 29.74 in 10.0 mi ESE 4.6 mph - N/A   Clear
10:58 AM 89.1 °F 23.9 °F 9% 29.73 in 10.0 mi Variable 4.6 mph - N/A   Clear
11:58 AM 92.7 °F 23.7 °F 8% 29.71 in 10.0 mi SE 6.9 mph - N/A   Clear
12:58 PM 95.4 °F 22.6 °F 7% 29.68 in 10.0 mi SSE 8.1 mph - N/A   Clear
1:58 PM 98.1 °F 24.6 °F 7% 29.65 in 10.0 mi South 5.8 mph - N/A   Clear
2:58 PM 100.6 °F 19.4 °F 5% 29.62 in 10.0 mi WSW 10.4 mph - 0.00 in   Clear
3:58 PM 101.7 °F 20.3 °F 5% 29.59 in 10.0 mi WSW 11.5 mph 17.3 mph N/A   Clear
4:58 PM 101.5 °F 21.0 °F 6% 29.57 in 10.0 mi SSW 11.5 mph 19.6 mph N/A   Clear
5:58 PM 100.2 °F 22.6 °F 6% 29.55 in 10.0 mi SSW 18.4 mph - N/A   Clear
6:58 PM 96.6 °F 26.1 °F 8% 29.55 in 10.0 mi SW 9.2 mph - N/A   Clear
7:58 PM 92.7 °F 23.7 °F 8% 29.56 in 10.0 mi WSW 15.0 mph - N/A   Clear
8:58 PM 90.0 °F 23.4 °F 9% 29.58 in 10.0 mi SW 16.1 mph - N/A   Clear
9:58 PM 88.7 °F 20.7 °F 8% 29.59 in 10.0 mi WSW 12.7 mph - N/A   Clear
10:58 PM 85.5 °F 21.0 °F 9% 29.60 in 10.0 mi WSW 11.5 mph - N/A   Clear
11:58 PM 82.8 °F 21.4 °F 10% 29.61 in 10.0 mi SW 8.1 mph - N/A   Clear